When you browse on this site, cookies collect data to enhance your experience and personalize the content and advertising you see.
Visit our Privacy Policy to learn more. By continuing to use the site, you agree to this use of cookies and data.

Meteo pe oră la Malanville

Astăzi, 12 August, Miercuri

Timp Temperatura Precipitaţii Vânt Presiune Umiditate
00:00 +25°C° 0 mm 2 m/s 745 mmHg 93%
01:00 +25°C° 0 mm 2 m/s 745 mmHg 93%
02:00 +24°C° 0 mm 2 m/s 744 mmHg 93%
03:00 +24°C° 0 mm 2 m/s 744 mmHg 94%
04:00 +24°C° 0 mm 2 m/s 745 mmHg 94%
05:00 +24°C° 0 mm 2 m/s 745 mmHg 94%
06:00 +24°C° 0 mm 2 m/s 745 mmHg 94%
07:00 +25°C° 0 mm 2 m/s 746 mmHg 90%
08:00 +25°C° 0 mm 2 m/s 746 mmHg 87%
09:00 +26°C° 0 mm 3 m/s 746 mmHg 84%
10:00 +28°C° 0 mm 3 m/s 746 mmHg 77%
11:00 +29°C° 0 mm 2 m/s 746 mmHg 70%
12:00 +31°C° 0 mm 2 m/s 746 mmHg 63%
13:00 +31°C° 0 mm 2 m/s 745 mmHg 61%
14:00 +32°C° 0 mm 2 m/s 744 mmHg 60%
15:00 +32°C° 0 mm 2 m/s 743 mmHg 59%
16:00 +31°C° 0 mm 1 m/s 743 mmHg 63%
17:00 +30°C° 0 mm 1 m/s 743 mmHg 68%
18:00 +29°C° 0 mm 1 m/s 743 mmHg 72%
19:00 +29°C° 0 mm 1 m/s 744 mmHg 73%
20:00 +28°C° 0 mm 1 m/s 745 mmHg 75%
21:00 +27°C° 0 mm 1 m/s 745 mmHg 76%
22:00 +27°C° 0 mm 1 m/s 745 mmHg 78%
23:00 +27°C° 0 mm 1 m/s 745 mmHg 80%

Mâine, 13 August, Joi

Timp Temperatura Precipitaţii Vânt Presiune Umiditate
00:00 +26°C° 0 mm 1 m/s 745 mmHg 82%
01:00 +26°C° 0 mm 1 m/s 745 mmHg 83%
02:00 +26°C° 0 mm 1 m/s 744 mmHg 83%
03:00 +26°C° 0 mm 2 m/s 744 mmHg 84%
04:00 +26°C° 0 mm 2 m/s 744 mmHg 85%
05:00 +26°C° 0 mm 2 m/s 744 mmHg 86%
06:00 +26°C° 0 mm 2 m/s 744 mmHg 88%
07:00 +27°C° 0 mm 3 m/s 745 mmHg 82%
08:00 +29°C° 0 mm 3 m/s 745 mmHg 77%
09:00 +30°C° 0 mm 4 m/s 745 mmHg 71%
10:00 +33°C° 0 mm 4 m/s 745 mmHg 66%
11:00 +34°C° 0 mm 4 m/s 744 mmHg 62%
12:00 +35°C° 0 mm 4 m/s 744 mmHg 57%
13:00 +35°C° 0 mm 4 m/s 743 mmHg 58%
14:00 +35°C° 0 mm 4 m/s 742 mmHg 59%
15:00 +35°C° 0 mm 4 m/s 742 mmHg 60%
16:00 +34°C° 0.7 mm 4 m/s 742 mmHg 66%
17:00 +32°C° 0.7 mm 4 m/s 742 mmHg 72%
18:00 +30°C° 0.7 mm 4 m/s 742 mmHg 79%
19:00 +29°C° 0.1 mm 3 m/s 742 mmHg 81%
20:00 +29°C° 0.1 mm 3 m/s 743 mmHg 83%
21:00 +28°C° 0.1 mm 3 m/s 743 mmHg 85%
22:00 +28°C° 0.2 mm 3 m/s 743 mmHg 86%
23:00 +28°C° 0.2 mm 3 m/s 742 mmHg 87%

Poimâine, 14 August, Vineri

Timp Temperatura Precipitaţii Vânt Presiune Umiditate
00:00 +27°C° 0.2 mm 3 m/s 742 mmHg 87%
01:00 +27°C° 1 mm 3 m/s 742 mmHg 90%
02:00 +26°C° 1 mm 4 m/s 742 mmHg 92%
03:00 +26°C° 1 mm 4 m/s 741 mmHg 94%
04:00 +25°C° 2.3 mm 4 m/s 741 mmHg 94%
05:00 +25°C° 2.3 mm 4 m/s 742 mmHg 93%
06:00 +23°C° 2.3 mm 4 m/s 742 mmHg 93%
07:00 +25°C° 1.1 mm 3 m/s 742 mmHg 91%
08:00 +25°C° 1.1 mm 3 m/s 743 mmHg 89%
09:00 +26°C° 1.1 mm 2 m/s 743 mmHg 87%
10:00 +27°C° 0.6 mm 3 m/s 743 mmHg 86%
11:00 +27°C° 0.6 mm 3 m/s 743 mmHg 85%
12:00 +27°C° 0.6 mm 4 m/s 742 mmHg 84%
13:00 +28°C° 0.7 mm 4 m/s 742 mmHg 80%
14:00 +29°C° 0.7 mm 4 m/s 741 mmHg 76%
15:00 +30°C° 0.7 mm 4 m/s 741 mmHg 72%
16:00 +29°C° 0.2 mm 4 m/s 741 mmHg 76%
17:00 +28°C° 0.2 mm 3 m/s 741 mmHg 81%
18:00 +27°C° 0.2 mm 3 m/s 740 mmHg 85%
19:00 +27°C° 0.2 mm 3 m/s 741 mmHg 87%
20:00 +27°C° 0.2 mm 3 m/s 741 mmHg 88%
21:00 +26°C° 0.2 mm 2 m/s 742 mmHg 90%
22:00 +26°C° 0.4 mm 3 m/s 742 mmHg 91%
23:00 +26°C° 0.4 mm 3 m/s 742 mmHg 92%

15 August, Sâmbătă

Timp Temperatura Precipitaţii Vânt Presiune Umiditate
00:00 +25°C° 0.4 mm 3 m/s 742 mmHg 93%
01:00 +25°C° 0.7 mm 3 m/s 742 mmHg 94%
02:00 +25°C° 0.7 mm 3 m/s 742 mmHg 94%
03:00 +25°C° 0.7 mm 2 m/s 741 mmHg 95%
04:00 +25°C° 0.5 mm 3 m/s 742 mmHg 95%
05:00 +25°C° 0.5 mm 3 m/s 742 mmHg 95%
06:00 +25°C° 0.5 mm 3 m/s 742 mmHg 94%
07:00 +26°C° 0.2 mm 3 m/s 743 mmHg 91%
08:00 +26°C° 0.2 mm 3 m/s 743 mmHg 88%
09:00 +27°C° 0.2 mm 3 m/s 744 mmHg 85%
10:00 +28°C° 0.1 mm 3 m/s 743 mmHg 80%
11:00 +29°C° 0.1 mm 4 m/s 743 mmHg 75%
12:00 +32°C° 0.1 mm 4 m/s 743 mmHg 70%
13:00 +32°C° 0.1 mm 4 m/s 742 mmHg 67%
14:00 +33°C° 0.1 mm 3 m/s 742 mmHg 65%
15:00 +33°C° 0.1 mm 3 m/s 741 mmHg 63%
16:00 +31°C° 0.1 mm 3 m/s 741 mmHg 69%
17:00 +30°C° 0.1 mm 3 m/s 741 mmHg 75%
18:00 +28°C° 0.1 mm 3 m/s 741 mmHg 80%
19:00 +28°C° 0 mm 3 m/s 742 mmHg 83%
20:00 +27°C° 0 mm 3 m/s 743 mmHg 85%
21:00 +26°C° 0 mm 3 m/s 743 mmHg 87%
22:00 +26°C° 0 mm 3 m/s 743 mmHg 88%
23:00 +26°C° 0 mm 3 m/s 743 mmHg 89%

16 August, Duminică

Timp Temperatura Precipitaţii Vânt Presiune Umiditate
00:00 +25°C° 0 mm 3 m/s 743 mmHg 91%
01:00 +25°C° 0 mm 3 m/s 743 mmHg 91%
02:00 +25°C° 0 mm 3 m/s 743 mmHg 92%
03:00 +24°C° 0 mm 3 m/s 743 mmHg 92%
04:00 +24°C° 0 mm 3 m/s 743 mmHg 92%
05:00 +24°C° 0 mm 2 m/s 743 mmHg 92%
06:00 +23°C° 0 mm 2 m/s 743 mmHg 92%
07:00 +25°C° 0 mm 3 m/s 743 mmHg 87%
08:00 +26°C° 0 mm 4 m/s 744 mmHg 81%
09:00 +28°C° 0 mm 4 m/s 744 mmHg 76%
10:00 +29°C° 0 mm 4 m/s 743 mmHg 70%
11:00 +32°C° 0 mm 4 m/s 743 mmHg 65%
12:00 +33°C° 0 mm 4 m/s 743 mmHg 60%
13:00 +34°C° 0 mm 4 m/s 742 mmHg 59%
14:00 +34°C° 0 mm 4 m/s 741 mmHg 59%
15:00 +34°C° 0 mm 4 m/s 741 mmHg 58%
16:00 +33°C° 0 mm 3 m/s 741 mmHg 63%
17:00 +31°C° 0 mm 3 m/s 741 mmHg 68%
18:00 +30°C° 0 mm 2 m/s 741 mmHg 74%
19:00 +29°C° 0 mm 2 m/s 741 mmHg 75%
20:00 +28°C° 0 mm 2 m/s 742 mmHg 77%
21:00 +28°C° 0 mm 2 m/s 742 mmHg 78%
22:00 +27°C° 0 mm 2 m/s 742 mmHg 80%
23:00 +27°C° 0 mm 2 m/s 742 mmHg 82%

17 August, Luni

Timp Temperatura Precipitaţii Vânt Presiune Umiditate
00:00 +27°C° 0 mm 2 m/s 742 mmHg 83%
01:00 +26°C° 0 mm 3 m/s 742 mmHg 84%
02:00 +26°C° 0 mm 3 m/s 742 mmHg 85%
03:00 +26°C° 0 mm 4 m/s 742 mmHg 86%
04:00 +26°C° 0 mm 4 m/s 742 mmHg 86%
05:00 +25°C° 0 mm 4 m/s 742 mmHg 85%
06:00 +25°C° 0 mm 5 m/s 743 mmHg 85%
07:00 +27°C° 0 mm 5 m/s 743 mmHg 81%
08:00 +28°C° 0 mm 5 m/s 743 mmHg 78%
09:00 +29°C° 0 mm 6 m/s 743 mmHg 74%
10:00 +30°C° 0 mm 5 m/s 743 mmHg 69%
11:00 +33°C° 0 mm 4 m/s 743 mmHg 64%
12:00 +34°C° 0 mm 3 m/s 742 mmHg 58%
13:00 +35°C° 0 mm 3 m/s 741 mmHg 57%
14:00 +35°C° 0 mm 2 m/s 741 mmHg 55%
15:00 +36°C° 0 mm 2 m/s 740 mmHg 54%
16:00 +34°C° 0.1 mm 2 m/s 740 mmHg 60%
17:00 +32°C° 0.1 mm 2 m/s 740 mmHg 66%
18:00 +31°C° 0.1 mm 2 m/s 741 mmHg 72%
19:00 +30°C° 0.1 mm 2 m/s 741 mmHg 75%
20:00 +29°C° 0.1 mm 3 m/s 742 mmHg 78%
21:00 +28°C° 0.1 mm 3 m/s 742 mmHg 81%
22:00 +28°C° 0 mm 3 m/s 742 mmHg 82%
23:00 +28°C° 0 mm 3 m/s 742 mmHg 83%
Arată mai mult